RH
15 14 15 17 18 18 18 19 20 21 23 27 32 31 23 23 23 19 18 22 31 35 36 40 41 41 40 39 42 43 45 48 48 48 53 56 51 53 52 39 42 60 59 38 21 16 16 22 29 30 31 31 34 40 42 41 39 34 32 30 27 26 27 30 33 35 40 44 49 57 63 66 65 59 50 44 43 36 27 20 16 12 10 9 9 10
16 16 19 20 19 18 18 20 19 20 26 31 33 28 21 22 20 16 17 22 32 39 38 40 41 40 39 39 40 41 44 46 46 51 54 51 49 53 47 37 46 51 34 16 10 16 26 33 44 54 51 45 46 45 42 42 41 40 42 44 43 44 46 47 50 51 51 52 53 54 58 62 69 74 69 59 53 46 38 31 25 21 17 12 9 7
19 19 22 22 20 20 19 20 19 19 26 33 34 27 20 20 20 18 16 19 33 39 38 40 40 37 38 39 38 38 41 45 47 50 50 47 50 53 45 45 52 37 13 8 15 26 36 41 57 72 66 57 56 56 55 53 50 50 51 52 53 53 55 56 58 60 60 60 59 58 59 60 65 78 86 82 70 53 45 41 34 32 27 19 15 9
21 22 24 22 21 22 19 20 20 19 24 32 32 24 19 18 22 25 18 19 33 39 40 40 37 36 38 37 35 37 42 46 48 51 55 56 54 48 43 48 46 21 5 13 24 34 43 52 68 77 68 62 62 62 64 60 56 55 53 54 57 58 56 57 59 62 62 62 61 62 64 65 66 73 84 91 88 73 65 63 60 64 63 55 43 21
22 24 24 24 23 22 21 21 21 21 22 29 29 23 21 20 21 24 21 26 35 39 41 37 33 34 35 36 37 38 45 50 51 54 59 56 48 40 36 39 29 9 9 24 33 41 50 58 75 81 67 60 63 63 62 60 59 58 53 54 58 60 57 56 59 60 59 59 58 59 62 65 68 71 75 80 89 92 89 87 86 87 90 90 74 44
21 24 25 25 24 22 23 22 21 22 21 26 26 20 21 22 20 21 28 38 40 37 37 33 35 37 34 36 38 39 47 54 55 54 53 47 38 32 33 32 18 5 17 33 40 48 54 58 71 77 66 60 62 59 56 57 59 57 56 55 56 59 59 57 60 61 59 59 60 61 62 64 66 67 67 68 80 96 98 91 84 80 84 87 77 56
20 24 25 26 26 23 24 23 23 24 22 24 23 18 21 23 23 26 32 43 45 36 32 32 37 39 34 33 36 39 44 48 50 50 49 44 33 29 35 28 9 8 25 38 45 51 55 58 64 65 61 62 61 57 55 55 56 55 54 54 55 58 57 57 61 61 60 61 62 64 64 65 65 63 62 62 70 85 93 88 78 72 69 64 57 46
22 24 25 26 27 25 25 25 25 25 25 26 22 19 23 24 27 31 34 43 45 35 31 31 31 34 31 30 34 37 39 44 49 48 45 38 30 32 35 19 4 15 32 40 46 50 53 58 59 56 53 55 57 55 55 54 54 54 54 55 56 58 57 57 58 58 60 61 61 63 65 66 66 65 65 65 65 69 80 87 84 78 66 51 45 41
23 24 24 27 28 27 26 26 26 27 28 27 23 22 24 25 28 32 37 42 39 35 34 28 28 36 34 28 33 36 38 45 44 40 37 33 33 35 28 10 4 20 35 42 47 48 51 56 55 52 48 49 53 53 52 54 55 57 58 59 59 59 59 59 59 57 58 60 59 61 64 66 67 68 69 70 70 67 68 73 77 80 75 66 59 51
24 24 26 27 28 29 28 27 27 28 28 27 25 24 23 26 29 33 39 38 35 39 37 27 28 40 38 30 33 37 38 39 35 32 35 34 33 30 17 4 7 24 35 42 47 47 51 54 52 50 47 46 50 51 53 55 57 59 61 61 62 62 62 61 62 60 59 59 60 61 63 65 66 66 66 67 70 72 71 67 62 63 66 67 64 58
25 26 27 28 30 31 29 28 28 29 30 29 28 26 26 28 29 32 35 33 36 40 32 26 29 41 47 38 29 31 31 30 31 33 34 33 29 20 9 2 10 26 35 41 46 45 49 53 50 49 48 47 48 50 54 56 58 60 61 60 62 64 64 63 62 60 59 60 61 63 65 66 66 65 65 65 66 69 71 69 63 58 55 53 52 51
28 30 28 28 31 32 30 29 29 31 31 30 29 28 29 30 29 31 32 32 43 43 30 27 33 43 51 40 26 26 28 29 33 35 34 32 23 11 5 2 12 28 35 41 45 43 46 49 48 47 46 46 48 50 55 56 57 57 56 56 59 62 62 61 60 58 59 60 62 65 66 67 68 68 68 68 67 69 70 71 71 68 66 64 61 60
30 32 31 31 31 33 33 30 31 34 32 31 30 29 34 37 38 40 39 39 46 42 31 30 40 48 43 31 27 29 30 33 34 36 35 28 18 10 5 2 12 29 36 40 43 43 46 47 47 47 44 45 49 52 54 55 55 54 52 53 56 60 60 58 60 60 60 61 62 64 66 67 68 68 69 68 68 68 68 68 69 70 71 72 73 74
32 34 33 33 33 34 35 32 32 35 33 33 32 32 39 44 51 57 52 50 50 42 34 35 44 48 36 28 30 30 33 36 35 37 33 23 16 11 5 2 13 30 39 42 42 42 47 49 47 45 44 46 48 50 54 54 53 52 50 51 55 60 60 57 59 59 60 62 62 63 65 65 64 64 63 63 63 63 64 65 66 67 69 71 72 73
36 39 35 33 34 36 36 33 35 36 36 36 34 35 39 40 51 59 54 54 57 52 46 42 40 38 32 31 33 33 35 35 35 36 29 21 15 8 3 3 12 29 40 43 42 41 47 51 47 44 47 45 41 45 51 50 49 49 49 50 52 56 58 57 57 59 61 62 62 62 62 61 61 61 61 62 64 65 66 67 69 71 73 74 76 76
34 37 34 33 35 37 36 33 36 37 37 38 35 36 39 40 45 51 50 48 54 60 55 43 35 32 32 35 36 36 34 32 35 33 25 19 11 3 4 4 10 27 39 43 45 43 45 51 48 44 48 45 39 42 44 44 45 46 47 48 48 51 56 57 57 59 60 61 61 61 60 60 60 62 64 65 66 67 68 70 72 75 78 80 81 80
33 33 33 34 37 39 38 34 36 39 38 38 38 38 40 44 45 51 54 46 49 64 57 39 36 37 37 40 38 35 34 34 34 30 25 19 8 2 5 3 8 24 36 42 48 47 46 51 49 45 48 47 41 39 36 37 40 40 42 45 47 51 54 56 57 57 58 58 59 59 59 60 62 65 67 68 69 71 72 76 78 80 83 86 87 86
36 34 32 36 39 40 39 37 37 39 41 40 41 40 40 45 49 51 55 55 60 69 57 40 40 43 44 44 38 33 37 37 32 28 26 17 5 4 5 3 7 21 33 39 44 49 50 51 50 50 50 43 35 34 32 31 33 35 39 42 45 51 53 54 55 56 57 58 58 60 60 61 63 66 69 72 75 77 79 80 84 87 88 90 92 91
38 37 35 37 42 43 41 39 39 40 43 43 44 43 40 47 53 49 52 64 74 77 62 47 46 46 43 39 35 36 38 35 30 28 24 11 4 4 3 3 6 17 32 37 38 44 47 49 52 53 48 35 28 32 32 30 31 32 37 40 43 49 51 52 55 56 58 60 61 62 62 64 65 66 69 72 75 78 81 84 88 92 94 94 95 95
39 42 39 38 41 44 42 40 41 40 42 45 47 48 45 45 49 49 51 58 68 80 77 65 57 49 41 36 36 39 36 32 31 28 19 8 4 4 3 3 4 13 30 38 40 42 45 52 55 53 47 33 26 32 32 33 33 30 31 35 39 46 49 50 54 56 58 60 62 63 65 66 67 67 69 71 73 76 80 85 90 96 98 99 98 97
39 42 42 39 41 45 44 42 41 40 42 45 48 52 50 46 46 52 57 54 58 75 82 80 71 51 38 39 40 37 35 34 33 27 16 7 5 4 3 3 3 10 26 37 42 42 44 50 51 51 52 41 32 34 35 33 32 29 30 32 36 41 44 48 51 54 56 59 59 61 65 67 68 69 71 71 72 75 80 85 90 96 99 100 101 99
40 42 43 41 41 44 44 43 43 41 43 45 49 51 52 50 49 56 65 59 56 65 70 79 82 56 38 42 40 36 38 38 34 27 16 7 5 4 3 3 3 7 20 34 41 42 42 46 47 47 51 47 40 37 35 31 28 27 29 31 34 37 40 45 49 51 54 57 59 60 62 66 69 72 73 72 71 73 79 84 89 94 97 99 101 100
42 44 44 42 43 46 45 45 44 43 44 46 51 52 52 54 52 55 63 58 55 62 61 70 83 62 40 42 41 38 41 39 33 26 14 7 6 4 3 3 3 5 15 28 36 39 39 42 45 44 46 50 49 41 34 31 28 29 30 30 32 35 38 42 45 49 53 55 59 59 61 65 68 72 75 73 71 72 77 82 87 93 98 99 100 100
42 45 46 44 45 46 44 44 44 44 46 49 52 52 52 55 54 55 57 54 58 64 62 73 84 62 41 44 46 43 43 39 33 24 14 8 6 4 4 3 3 4 10 22 31 33 34 36 41 44 44 50 53 45 36 32 28 29 31 29 30 32 35 39 42 47 50 53 57 58 60 65 68 71 75 75 74 74 77 83 89 95 99 99 100 100
42 45 46 48 51 52 50 49 48 48 51 54 55 54 52 53 56 58 57 59 66 64 62 77 80 56 44 50 48 46 44 38 31 23 14 9 6 5 4 3 3 3 6 16 26 29 30 33 38 42 43 47 51 51 47 39 31 30 31 30 30 31 33 35 38 42 46 51 54 56 58 63 66 68 72 75 78 78 79 84 90 96 99 99 100 100
42 43 45 49 56 60 59 56 53 51 52 54 53 53 53 53 55 56 57 64 69 61 59 68 66 52 49 50 48 48 45 36 30 23 14 10 8 6 4 3 3 3 3 9 18 26 30 31 33 39 43 45 47 51 52 47 38 35 34 30 29 30 32 35 37 39 43 47 50 53 54 58 63 66 67 72 77 81 82 85 90 96 97 97 100 100
42 42 44 47 50 53 54 52 50 50 51 52 52 53 54 54 55 56 59 61 59 56 58 59 57 55 52 49 50 51 45 37 31 24 18 14 11 8 5 4 3 3 4 5 10 21 29 31 33 36 42 46 47 48 51 51 47 43 40 35 31 31 31 33 37 39 42 46 49 51 52 55 60 64 67 70 74 80 84 86 90 95 95 96 99 100
41 41 43 46 48 49 49 48 49 51 53 54 55 55 55 56 55 53 54 53 51 56 61 56 56 59 53 51 55 52 45 39 32 26 23 18 14 10 7 4 3 3 3 4 6 14 23 29 33 34 38 44 48 48 50 53 54 52 48 44 39 35 33 33 35 38 41 45 48 49 50 53 61 67 72 75 77 78 81 84 88 93 95 96 100 100
42 42 42 46 47 45 44 46 49 53 56 57 57 57 56 56 53 47 48 49 49 56 60 57 59 60 54 53 58 55 48 42 35 30 27 20 15 12 8 5 4 3 3 3 4 9 17 25 30 32 35 40 45 47 48 52 56 57 56 53 48 45 42 39 38 39 40 42 45 48 49 53 62 72 77 80 82 82 81 81 85 91 94 97 101 101
43 42 42 47 45 38 39 45 48 52 55 53 52 53 52 51 48 45 47 50 51 55 58 58 61 59 54 56 60 58 53 45 39 34 29 22 17 13 10 7 4 3 3 3 3 6 12 20 26 29 31 34 40 45 48 50 54 56 59 59 57 55 52 48 46 46 46 46 46 46 49 55 66 76 80 80 84 86 84 83 84 88 91 95 100 100
42 42 43 47 43 34 37 45 48 52 56 51 47 48 49 49 48 47 50 52 54 59 60 61 62 57 54 58 60 59 57 51 44 37 30 26 20 14 11 8 5 4 3 3 4 5 8 14 22 27 30 32 35 40 46 49 51 53 57 60 60 60 59 57 55 52 49 50 50 47 47 55 69 79 82 81 83 86 88 88 87 87 88 93 99 98
42 43 42 48 48 36 35 46 48 48 51 47 42 43 47 52 53 51 53 55 58 62 63 63 61 56 56 61 60 59 59 56 48 41 34 29 22 17 14 10 7 5 3 3 3 3 5 9 15 22 28 31 33 36 41 47 50 53 55 58 60 61 63 63 62 59 54 51 50 48 47 54 70 81 85 86 87 87 90 91 90 89 87 90 95 96
41 43 42 50 52 37 34 45 45 45 50 45 38 41 47 51 53 52 54 58 62 64 64 61 58 57 60 64 61 59 60 59 55 47 39 32 26 22 17 12 9 6 4 4 3 3 4 5 8 14 21 28 34 35 37 42 48 52 53 56 58 60 62 65 66 65 61 54 50 47 47 55 70 82 87 91 92 90 91 92 93 91 89 90 93 95
41 43 43 50 51 39 35 41 45 52 56 42 33 41 47 49 51 53 56 61 63 64 62 58 56 60 65 64 61 61 60 60 60 54 44 36 30 26 21 16 11 7 5 4 3 3 4 3 5 9 15 25 32 35 36 38 43 50 53 54 56 58 60 63 67 69 68 62 55 48 47 55 69 80 87 93 95 94 92 93 96 95 91 90 92 94
40 43 44 48 49 43 38 44 54 56 47 33 32 39 44 46 51 55 54 53 56 59 58 57 60 66 69 65 63 64 62 61 62 58 50 42 36 31 26 20 14 9 7 5 4 3 3 3 4 6 12 20 26 31 35 36 39 46 52 55 56 57 59 61 64 69 71 70 63 55 50 54 66 77 84 90 95 96 93 93 96 97 94 93 94 95
40 43 45 46 48 44 44 55 61 47 28 26 32 35 38 43 51 56 47 37 44 54 55 59 68 73 72 67 64 65 65 64 64 61 56 50 43 36 31 25 19 14 10 7 5 4 3 3 4 5 8 13 19 26 33 37 38 42 48 55 59 59 60 61 62 66 71 74 72 65 58 57 63 73 79 85 90 94 93 92 92 93 95 98 97 95
39 42 45 47 47 46 50 55 51 39 29 29 30 32 37 41 47 57 49 34 39 51 55 64 75 76 73 70 67 67 68 67 65 64 63 58 50 42 35 30 25 19 14 10 7 5 4 3 3 4 5 8 13 20 29 35 37 38 42 50 58 61 62 61 62 65 70 74 76 74 68 63 63 69 75 80 86 91 92 89 86 87 92 96 96 95
38 40 44 47 46 48 55 57 56 55 45 32 28 31 35 37 44 55 52 38 37 45 54 67 76 76 76 74 69 69 70 69 67 67 67 65 57 49 42 36 31 24 17 12 8 6 4 3 4 4 4 6 9 14 23 30 33 37 40 44 51 61 65 65 64 65 68 72 76 78 77 73 69 70 74 78 84 90 92 88 83 82 85 88 91 94
37 37 41 45 44 45 54 61 64 59 41 26 27 31 31 35 42 49 50 41 35 40 51 63 70 74 78 77 73 73 72 70 71 71 70 69 63 56 48 40 33 26 19 15 11 7 5 4 4 4 3 5 6 10 18 25 29 35 41 42 46 54 62 67 68 66 68 71 74 77 79 79 77 75 76 79 85 91 93 89 83 79 79 82 85 89
35 36 38 41 41 43 54 61 57 44 29 25 29 30 31 35 38 46 51 43 33 37 47 54 60 67 74 77 77 77 75 74 75 74 73 72 68 61 53 45 38 30 23 17 13 9 7 5 4 4 4 4 4 7 12 19 25 32 38 41 43 46 53 63 69 70 70 71 73 77 78 79 79 78 77 78 83 91 95 94 88 81 78 80 82 83
34 36 38 38 38 43 54 61 54 37 25 27 31 31 34 36 36 43 47 39 31 35 41 44 48 55 64 71 74 75 77 79 81 78 76 75 72 66 58 52 46 38 28 21 15 11 8 6 4 4 4 4 4 5 7 12 18 26 34 39 41 43 46 54 63 70 72 71 73 76 79 80 80 79 77 77 82 91 98 99 95 88 82 81 81 81
35 37 37 36 40 45 51 56 53 38 26 28 34 35 36 38 38 39 38 34 34 36 37 37 40 45 53 59 63 67 73 78 83 83 81 79 78 74 67 60 53 45 36 27 20 15 12 9 7 5 4 4 4 4 5 7 10 16 25 33 39 42 44 46 51 60 68 72 74 76 79 81 82 81 80 80 83 90 97 101 100 95 89 85 83 82
35 37 36 35 40 47 51 53 51 40 29 31 39 41 39 41 42 42 40 39 40 42 42 41 41 43 47 49 52 58 64 71 79 83 84 84 82 80 76 70 62 54 44 34 25 19 16 13 9 7 5 5 5 4 4 5 5 7 13 22 32 39 44 45 45 49 58 67 74 77 79 81 82 83 83 82 84 88 93 98 100 98 94 91 88 87
33 33 34 36 40 45 47 44 38 32 31 35 39 38 37 39 43 47 46 44 46 50 51 49 48 49 50 49 50 53 57 64 72 78 83 86 86 85 84 80 74 66 55 44 33 25 20 17 13 10 7 6 5 5 4 5 5 5 6 11 18 27 37 44 46 46 49 57 67 77 81 81 82 83 84 84 84 86 90 94 96 96 96 96 93 91
32 32 34 36 37 38 36 31 28 30 35 39 37 33 32 35 42 49 49 45 48 53 54 52 54 57 57 57 57 56 57 60 65 72 79 84 87 89 90 87 83 77 67 56 44 33 26 22 18 14 11 8 7 6 5 5 5 5 5 5 7 13 22 33 41 45 47 49 57 68 78 83 84 83 84 85 86 86 87 90 92 93 94 94 93 91
31 32 34 33 33 34 30 26 30 37 38 39 40 39 38 38 41 46 47 44 45 49 51 52 55 59 62 64 63 63 63 62 63 68 74 80 85 91 93 92 91 86 79 68 56 44 34 27 23 19 14 11 8 7 6 5 5 5 5 5 5 6 10 17 28 38 44 47 50 56 67 79 86 87 87 88 90 91 91 91 91 92 90 89 89 89
31 31 32 32 33 35 31 28 35 42 40 40 44 46 46 46 46 46 45 43 42 46 49 51 52 56 61 65 68 70 70 68 68 70 72 76 82 89 94 96 95 92 88 80 69 56 45 35 29 24 18 14 11 9 7 6 6 5 5 5 5 6 5 8 15 25 35 44 48 50 55 67 81 91 93 92 93 96 98 98 97 96 94 92 91 90
33 33 33 33 34 36 34 32 39 44 40 37 42 47 48 50 53 52 49 47 45 46 49 50 50 52 56 62 70 74 75 74 75 75 75 77 81 87 92 96 98 97 94 89 80 68 56 45 37 30 23 18 14 11 9 8 6 6 5 5 5 6 5 6 8 12 23 36 47 50 52 58 70 85 95 98 98 98 100 102 102 101 100 98 96 94
34 34 35 36 37 38 37 36 43 49 43 36 39 46 50 52 56 57 57 56 53 51 51 51 48 47 50 58 68 74 76 79 81 80 80 82 84 88 90 93 97 99 98 95 90 80 68 57 47 38 29 23 17 14 12 10 8 7 6 5 5 5 6 6 6 7 12 24 39 50 54 56 62 74 89 100 101 99 98 99 99 100 101 100 99 98
36 37 38 40 40 40 40 40 45 52 50 43 44 50 54 56 58 58 59 61 61 59 58 56 51 47 45 51 61 68 73 81 84 83 83 86 89 90 91 92 96 100 100 98 96 89 79 68 57 46 36 28 22 18 15 12 10 8 7 6 6 5 6 6 6 6 7 13 26 41 50 55 60 67 78 91 99 101 100 98 96 94 95 98 99 99
38 38 40 42 42 42 43 44 47 51 52 49 50 53 55 58 60 60 60 63 64 64 64 62 57 52 47 46 51 58 68 78 84 84 86 90 93 94 94 94 96 99 100 100 99 96 89 79 68 57 45 35 27 22 18 15 13 11 9 8 7 6 6 6 6 6 6 7 15 28 39 49 57 63 69 78 89 96 99 100 100 96 93 94 96 98
Wind_Speed
21 22 25 27 25 24 25 27 26 21 17 17 14 19 29 28 26 22 18 18 17 18 16 15 20 21 25 28 27 28 27 26 27 30 29 28 32 35 38 46 45 41 45 52 54 50 46 43 42 41 37 34 33 36 38 39 39 38 39 40 41 41 41 41 42 42 40 40 40 40 40 41 41 42 42 42 40 42 44 44 43 41 40 43 45 47
22 26 27 24 23 24 25 25 26 24 17 15 15 24 31 27 25 21 18 18 16 16 14 14 20 24 28 29 27 27 26 26 28 28 28 31 36 37 43 48 45 48 56 55 49 45 43 43 42 39 38 35 35 39 40 40 40 40 41 42 42 42 42 42 42 43 44 43 43 44 43 42 42 42 42 42 39 39 40 41 41 40 38 39 40 42
23 27 25 23 24 24 24 25 26 25 18 13 16 27 33 28 25 20 20 19 14 14 12 11 20 27 28 27 25 26 25 26 27 27 30 35 37 39 45 47 47 56 59 52 47 44 44 44 39 36 38 38 39 41 41 42 42 41 40 40 40 40 40 41 41 41 43 44 44 44 44 43 42 40 39 38 39 39 39 38 38 37 36 37 37 38
23 25 24 24 24 22 23 25 26 26 21 14 18 29 32 27 21 19 23 21 13 12 10 10 21 28 26 24 24 25 24 25 26 26 28 32 36 42 47 48 52 60 57 49 47 45 45 43 36 35 38 38 40 41 41 43 43 41 40 38 38 39 39 38 37 37 38 40 42 42 42 41 40 40 37 35 35 35 35 32 31 31 31 34 37 40
21 23 24 25 23 22 23 25 27 27 24 17 19 29 29 23 18 17 21 21 15 10 8 13 21 22 21 23 26 24 22 25 28 27 27 31 39 46 49 51 56 58 51 47 48 46 44 41 33 35 40 40 41 42 42 42 42 42 41 39 37 37 39 38 36 36 36 36 37 37 38 37 37 39 39 37 32 29 30 29 28 28 29 32 38 41
17 21 25 24 23 23 23 26 27 27 26 21 21 27 24 17 16 13 15 18 16 9 9 15 13 11 17 23 25 24 22 22 25 28 30 35 44 49 49 52 58 55 46 45 47 44 42 39 33 35 42 44 42 42 41 40 39 40 40 39 37 36 38 37 35 35 34 33 32 32 33 34 35 37 38 36 32 28 28 32 34 35 34 35 38 40
14 18 23 24 23 23 23 25 26 26 27 24 25 27 19 13 14 12 12 14 12 11 13 11 9 12 21 22 21 23 24 23 25 29 31 38 48 51 50 54 57 50 45 45 44 41 40 39 36 38 41 42 42 42 41 38 37 36 37 37 36 35 35 34 32 33 32 31 30 29 30 32 34 35 35 34 34 32 32 35 38 39 38 38 39 41
13 13 19 24 25 24 24 24 25 26 25 26 30 29 18 14 13 9 10 11 11 14 12 6 15 19 18 18 20 22 22 22 25 29 34 43 52 51 51 57 54 46 45 46 42 40 39 38 38 40 40 40 40 41 40 39 38 36 36 36 35 34 33 32 30 30 29 29 29 28 29 30 31 31 31 31 32 34 36 38 40 41 43 42 43 45
13 12 17 23 25 26 25 24 25 25 26 29 34 31 18 13 10 6 8 8 9 12 6 8 21 16 12 19 21 21 21 21 27 34 41 48 52 51 54 57 50 43 44 44 41 40 39 38 39 40 41 40 39 40 40 40 39 38 36 36 35 34 33 31 30 28 27 27 27 27 27 28 27 26 26 27 29 33 36 38 40 43 45 46 47 48
16 13 16 21 25 26 23 23 25 23 27 32 35 33 19 10 9 5 7 7 8 8 4 12 22 12 12 18 14 15 22 27 36 42 45 49 51 53 56 54 47 42 43 42 41 40 39 38 39 39 41 41 40 41 41 41 40 39 37 36 35 34 33 31 29 28 26 25 25 25 25 25 25 24 23 24 26 30 34 36 39 42 45 47 49 50
16 12 13 19 24 25 22 23 24 21 26 32 35 34 21 12 10 3 6 7 7 5 2 13 22 13 8 10 13 21 29 36 42 44 45 50 53 54 56 52 45 42 43 42 41 41 40 39 38 39 39 40 40 41 41 41 40 39 38 37 35 34 32 30 28 27 26 24 23 22 23 23 23 23 23 23 25 27 30 33 36 39 42 45 47 48
17 11 12 17 22 24 22 23 23 21 25 30 33 34 23 12 7 2 4 4 3 2 4 16 25 15 7 10 21 31 35 39 42 42 46 51 54 55 55 50 44 42 44 42 41 41 40 39 39 39 38 38 39 40 40 40 40 40 38 36 34 32 30 28 27 26 25 23 22 20 20 20 21 21 21 22 23 24 26 29 31 34 37 39 42 44
17 13 12 16 22 26 23 22 23 20 23 28 33 35 21 7 4 2 1 2 4 5 11 24 25 12 11 16 26 32 35 38 39 41 46 51 53 55 55 50 43 42 44 44 42 40 39 40 39 38 38 38 39 39 39 39 39 39 37 35 32 30 29 27 25 24 23 22 21 20 20 19 19 20 20 21 21 22 23 25 27 29 32 34 36 38
17 13 12 16 21 26 24 22 22 19 21 26 32 31 17 5 5 5 3 4 5 10 23 31 19 10 13 19 27 32 33 35 38 41 47 50 52 54 55 50 43 41 43 45 43 38 37 39 37 36 36 37 38 38 38 39 38 37 36 34 30 28 27 25 24 23 22 22 21 21 20 20 20 20 20 21 21 22 24 25 27 28 30 32 33 35
14 8 13 17 18 24 24 19 20 20 18 20 25 24 14 5 3 1 4 6 8 18 31 26 10 9 16 22 29 30 29 36 41 44 47 49 51 54 54 49 43 41 42 44 44 38 37 40 37 35 35 36 37 37 37 37 36 36 35 32 29 27 26 25 24 23 22 21 21 21 21 21 21 21 22 22 23 25 26 27 29 30 31 32 33 34
14 9 13 16 17 23 23 17 19 19 14 14 21 22 14 6 1 5 10 13 17 21 20 13 9 15 22 27 28 25 31 42 44 45 47 49 52 53 51 47 43 41 40 43 44 40 39 40 37 35 34 35 36 36 36 36 36 35 32 31 29 27 26 25 24 23 22 21 21 21 21 21 21 22 23 24 24 26 27 29 30 31 32 33 33 33
17 13 13 15 18 23 21 16 17 18 15 15 18 20 15 7 5 8 12 15 16 11 7 10 17 20 22 25 23 25 38 45 43 44 47 48 52 53 50 47 43 39 39 40 42 42 41 39 37 35 33 33 33 34 34 34 34 34 32 30 29 27 26 24 23 22 22 22 21 21 20 21 22 23 23 24 25 26 27 29 31 32 33 34 34 33
19 16 13 15 20 24 21 16 16 17 19 18 14 17 15 7 7 8 8 9 7 4 7 11 19 23 20 17 21 31 40 42 42 45 47 49 52 52 50 47 42 39 38 38 40 40 39 37 36 35 33 32 31 32 33 32 32 33 32 30 28 27 25 24 23 23 23 23 22 22 21 21 22 23 24 25 25 26 27 28 30 32 33 34 34 33
20 16 14 17 21 24 21 17 16 17 19 19 16 17 15 5 5 9 7 5 3 4 7 9 15 21 17 16 26 35 38 41 44 46 48 51 52 51 50 47 43 40 38 38 39 38 36 36 36 34 32 31 30 30 31 31 31 30 30 29 28 26 25 24 23 23 23 23 23 22 22 21 22 23 23 24 25 26 27 28 30 31 33 34 34 34
19 11 11 19 24 23 20 16 14 15 19 23 21 18 14 7 6 9 4 3 3 3 6 8 12 15 16 22 30 34 37 42 46 48 51 51 51 50 49 46 43 40 37 37 39 39 37 34 35 34 32 31 30 29 30 29 29 29 28 28 27 26 25 24 23 23 23 23 23 22 22 22 22 22 23 24 24 25 26 27 29 31 33 33 34 34
19 9 10 21 25 20 18 16 15 17 19 21 22 18 15 11 9 9 5 6 5 2 3 6 9 19 26 27 28 33 38 42 46 50 51 50 50 49 47 45 43 39 37 36 36 38 37 34 34 34 32 31 30 28 28 27 27 27 27 26 26 25 25 24 23 23 23 23 23 22 22 22 22 22 22 22 23 24 25 27 29 31 32 33 33 33
20 9 12 24 24 18 19 19 20 20 19 21 23 19 16 14 10 7 4 6 7 6 7 5 10 27 32 27 29 37 39 42 47 49 49 49 49 48 47 45 42 39 37 36 36 37 37 34 32 32 31 30 30 28 27 27 26 26 25 25 25 25 25 24 23 23 23 23 23 22 21 22 22 22 22 21 21 23 25 27 28 30 31 31 31 32
21 11 15 25 22 18 20 19 19 19 18 21 22 20 19 15 11 6 4 8 11 13 16 11 11 24 31 29 35 41 39 43 47 47 47 48 47 47 47 45 42 40 37 35 35 35 35 34 31 31 30 29 29 29 27 26 25 25 25 24 23 24 24 24 24 23 23 23 23 22 22 22 22 22 22 20 20 22 24 26 27 29 31 31 30 29
19 12 19 26 22 19 19 17 16 15 17 21 23 23 21 18 16 13 11 15 15 15 16 9 9 20 31 35 39 39 39 44 46 45 46 47 47 46 45 44 42 40 38 36 35 34 35 35 32 31 31 29 29 29 27 26 25 24 24 24 23 23 23 24 24 24 24 24 24 24 23 22 22 22 22 21 21 22 24 25 27 29 31 32 29 27
18 15 20 21 17 15 13 12 13 15 19 23 26 26 24 22 21 19 17 15 12 13 12 5 10 27 37 38 39 38 40 43 43 43 45 45 46 46 44 44 43 40 38 36 35 35 35 35 34 32 30 29 28 28 27 27 25 24 23 23 23 23 22 23 24 24 25 25 25 25 24 24 24 23 22 21 21 22 23 24 27 28 31 32 29 26
20 19 19 13 8 8 10 13 18 23 26 26 27 28 28 27 25 23 19 13 12 14 13 14 24 42 45 39 37 37 39 42 43 42 43 44 44 45 44 44 43 41 39 37 35 35 34 35 35 34 31 30 29 28 26 26 25 24 23 23 23 22 22 23 24 24 25 25 26 26 26 26 27 26 24 23 22 22 22 24 26 27 29 31 30 27
22 22 20 15 13 15 21 24 24 24 27 27 27 28 29 28 28 26 20 18 19 21 24 29 35 45 47 41 37 38 39 41 43 42 43 44 43 44 44 43 42 41 39 38 36 34 33 33 34 34 32 30 29 29 27 27 26 24 23 23 23 23 23 23 24 25 25 26 26 26 26 27 28 28 26 25 24 23 23 24 25 26 28 30 30 28
24 24 22 21 23 25 28 27 21 19 25 28 26 26 28 27 28 28 25 25 24 20 28 37 36 38 46 43 37 39 41 41 43 42 42 43 43 44 44 43 42 41 39 38 36 34 33 32 32 33 32 30 29 29 28 27 26 25 24 24 23 23 24 23 24 25 25 26 26 26 26 26 27 28 27 27 26 25 25 24 24 26 27 28 29 28
24 25 25 26 30 31 26 23 21 22 27 29 25 23 25 27 29 29 28 29 25 24 33 43 41 42 46 41 36 40 41 42 44 42 42 43 43 43 44 43 42 41 40 39 37 35 33 31 31 32 32 31 30 29 28 27 26 25 24 24 23 24 24 24 24 24 25 26 26 26 26 25 26 27 27 28 28 27 26 25 25 25 26 27 27 27
22 25 26 29 35 33 24 22 26 28 31 30 26 22 22 25 28 30 30 30 28 33 40 43 44 46 40 34 37 42 41 42 44 42 42 43 42 43 43 42 42 41 40 39 38 36 34 32 32 31 32 32 31 30 29 28 27 26 25 24 24 23 24 24 24 24 24 25 26 26 25 24 24 25 26 27 28 28 27 26 25 24 24 25 26 26
22 25 26 30 36 33 26 27 31 30 30 28 20 17 17 21 25 29 31 30 30 36 40 39 43 46 37 31 39 43 41 42 43 42 43 42 42 43 42 42 42 41 40 39 38 37 35 33 32 32 32 33 32 32 31 29 28 27 25 25 24 24 24 23 23 24 24 24 24 25 24 24 23 24 25 26 26 27 27 27 26 25 24 24 24 25
22 25 28 29 33 32 30 30 33 30 27 21 16 18 20 21 25 27 29 31 32 37 38 37 42 43 37 34 40 42 41 42 42 42 43 42 41 42 42 42 41 40 40 40 38 38 36 34 32 32 32 32 33 33 32 30 29 28 27 26 25 25 24 24 23 23 23 23 23 23 23 22 22 22 24 25 26 26 26 27 27 25 23 23 23 24
21 25 29 26 27 32 32 31 34 29 18 16 20 24 24 22 24 28 32 35 36 36 37 38 40 39 37 37 41 42 42 42 42 42 42 42 42 41 41 42 41 40 40 39 38 38 37 36 34 33 32 32 33 34 34 33 31 29 28 27 26 25 25 24 24 23 23 23 23 22 22 21 20 21 23 25 26 26 26 26 26 26 24 23 22 22
21 24 27 23 24 30 33 34 31 18 8 16 24 23 22 23 25 31 38 41 40 38 38 39 38 36 38 41 43 44 43 43 42 41 39 41 42 41 40 40 40 41 40 39 39 38 38 37 35 34 34 33 33 33 34 34 32 31 30 28 27 26 25 25 24 24 23 23 22 22 21 20 19 20 21 24 25 27 27 26 26 25 23 22 21 21
22 23 24 24 25 28 32 30 18 8 11 22 24 23 25 28 29 36 42 43 40 39 37 35 35 38 42 44 44 45 45 45 44 41 39 40 40 40 41 40 40 41 40 39 39 39 39 39 37 35 34 33 32 33 33 34 34 32 31 30 28 27 26 25 24 24 24 23 22 21 20 19 19 19 20 22 24 26 27 26 26 24 21 20 20 20
22 22 23 25 23 22 24 18 9 15 24 25 24 27 31 32 33 38 43 43 37 33 32 33 39 44 45 45 45 46 47 48 46 43 40 40 40 41 41 41 41 40 41 41 40 39 40 39 38 36 35 34 34 33 33 34 34 33 33 31 29 28 26 26 24 24 24 23 23 22 21 19 18 18 20 21 23 26 26 25 25 22 19 19 19 19
20 21 23 22 16 15 21 22 23 26 25 22 26 32 33 35 36 38 42 40 32 30 35 40 45 47 46 46 47 47 48 50 49 46 45 44 42 42 42 41 41 41 41 41 41 40 39 39 38 37 35 35 34 33 33 33 33 33 33 32 31 29 27 26 25 24 24 24 24 23 22 21 20 19 20 21 23 25 25 24 23 21 18 17 18 18
20 21 21 19 16 16 19 22 21 16 13 20 31 34 36 39 38 38 43 39 34 37 45 47 47 48 47 46 48 48 49 52 51 49 48 47 44 43 42 41 42 42 41 41 40 39 39 39 38 37 36 35 34 34 33 33 33 33 33 33 33 30 28 26 25 24 24 23 23 24 23 23 22 21 22 22 23 24 24 23 21 20 19 18 17 18
21 22 22 20 21 20 17 13 9 9 14 26 33 35 38 40 40 40 38 37 42 47 49 48 48 48 47 47 48 48 48 50 51 50 49 48 45 44 43 41 40 41 40 40 39 38 38 38 38 38 37 36 35 34 34 34 34 33 33 33 33 32 30 28 25 24 23 23 23 23 23 23 23 23 23 23 23 23 23 22 20 19 19 19 18 18
22 23 23 22 22 22 18 15 15 18 24 30 33 37 40 41 41 34 24 31 48 51 47 48 48 47 47 47 47 48 47 48 50 49 48 48 45 44 43 41 39 39 39 39 39 38 37 37 37 37 36 35 35 34 34 34 33 33 33 33 32 32 31 30 27 25 23 23 23 23 23 23 22 22 22 22 22 22 23 22 20 19 18 19 19 19
24 22 22 22 22 21 18 20 24 28 29 29 32 39 41 39 37 28 24 38 51 48 46 48 47 46 47 47 47 48 47 47 48 47 47 47 45 43 42 41 40 39 38 38 38 38 38 37 36 36 36 35 35 34 34 34 33 33 33 33 32 32 31 30 29 26 24 23 22 22 23 23 22 20 19 19 20 21 21 21 20 19 19 19 19 19
22 20 20 21 21 20 19 21 26 29 29 30 35 40 39 36 34 34 39 46 47 45 46 47 46 46 47 46 47 48 47 47 47 47 47 46 45 43 42 41 40 39 37 37 37 37 37 37 37 37 36 36 35 34 33 33 33 33 32 32 32 32 31 30 29 28 26 24 23 22 23 23 22 21 18 17 18 19 20 20 21 20 20 19 19 19
22 19 19 20 20 18 17 16 17 22 31 36 38 39 38 37 37 40 45 45 44 45 47 46 46 47 47 47 48 48 48 48 47 47 47 47 45 44 42 41 40 39 38 37 37 36 36 36 36 36 36 35 34 34 33 33 33 33 32 32 32 32 31 30 29 28 27 25 24 23 22 22 23 22 20 18 18 18 19 19 20 20 20 20 20 20
23 20 20 22 21 18 18 19 20 27 36 39 37 38 39 40 40 41 44 45 45 45 46 46 47 46 46 48 48 47 48 48 48 48 48 47 47 45 44 42 41 39 38 37 36 36 35 35 35 35 35 34 34 33 33 32 32 32 32 32 31 31 31 30 29 28 28 27 25 23 22 22 23 22 21 20 18 18 18 19 19 20 20 20 21 21
24 25 26 28 27 25 27 31 33 34 35 37 39 41 40 39 40 41 44 45 45 45 46 48 48 46 47 48 47 48 48 48 48 49 48 48 48 46 45 44 42 40 39 37 36 35 35 34 34 34 34 34 33 32 32 32 32 32 32 32 31 31 31 30 29 28 27 27 26 24 22 22 22 22 22 21 20 19 19 19 19 20 20 21 21 21
28 30 31 31 31 31 33 36 37 36 35 37 41 42 41 41 41 41 43 45 45 45 47 48 48 48 48 48 48 48 48 48 49 49 48 49 48 47 46 45 43 41 40 38 36 35 34 34 34 33 33 33 32 31 31 31 31 31 31 32 31 31 30 30 29 28 27 27 26 25 23 22 22 22 22 22 22 21 20 19 19 20 20 21 21 21
32 31 31 31 31 33 37 39 38 38 40 40 41 42 43 44 43 43 44 45 45 46 47 48 49 49 48 49 49 49 48 49 49 49 49 49 48 47 47 46 44 42 41 39 37 35 34 34 33 32 32 32 31 31 30 30 30 30 30 31 31 31 30 30 29 28 27 27 26 26 25 23 22 22 22 22 22 22 22 21 20 20 21 22 22 23
33 32 32 31 30 34 39 42 39 40 42 42 42 44 45 45 45 45 46 46 46 47 48 48 49 50 50 50 49 49 49 49 49 49 50 49 48 48 48 47 45 43 41 40 38 36 34 34 33 32 32 31 31 31 30 29 29 29 29 29 30 30 30 30 29 28 27 26 26 25 25 24 23 22 22 22 22 22 22 22 21 21 22 22 23 24
33 32 31 30 33 37 41 43 42 44 46 45 44 45 46 46 47 47 47 48 48 48 49 49 50 50 51 50 50 50 50 49 49 50 50 49 48 48 48 48 46 44 42 41 39 36 35 34 33 32 32 31 31 31 30 29 29 29 28 28 28 29 29 29 29 28 26 26 25 25 24 23 23 23 22 22 22 21 22 23 23 22 22 22 23 25
32 30 27 29 35 39 41 43 44 47 50 49 48 48 49 49 49 50 50 50 50 49 50 50 50 50 51 51 51 51 50 49 50 50 50 49 48 48 48 48 47 45 43 42 39 37 35 34 33 32 31 31 31 30 30 29 29 29 29 28 28 28 27 27 28 28 26 25 25 24 23 22 22 22 22 21 20 20 20 22 23 24 23 23 23 25
26 24 23 27 33 37 40 43 44 47 52 52 50 50 51 51 51 52 51 51 51 50 50 51 51 51 51 50 50 51 50 50 50 51 51 50 49 48 49 48 47 46 44 42 40 38 36 34 33 32 31 31 30 30 30 29 29 29 29 28 28 28 27 26 27 27 26 26 24 23 22 21 21 22 21 20 19 18 17 18 20 23 24 25 24 24
Wind_Direction
10 6 20 22 18 22 21 19 13 3 7 13 1 343 345 345 338 342 352 349 337 340 341 306 301 304 301 305 305 304 303 301 306 313 316 322 331 332 329 331 331 325 324 325 323 324 326 327 325 324 321 317 313 311 308 306 304 303 302 302 302 302 300 300 299 298 296 294 293 293 293 294 294 294 294 294 293 292 290 287 283 279 275 272 269 266
10 16 26 20 16 19 17 18 10 4 10 7 349 341 345 343 338 349 1 351 344 341 329 300 300 302 301 302 303 303 302 301 308 311 317 326 331 329 327 330 330 327 327 327 327 329 330 330 329 324 318 315 314 313 311 309 309 308 307 306 305 303 301 299 296 294 293 290 289 288 287 288 290 291 292 291 290 288 289 288 286 284 280 276 272 269
17 22 23 16 18 17 13 15 8 8 13 357 343 343 344 344 341 349 1 359 351 335 316 290 302 304 298 297 302 306 302 301 307 313 321 330 332 329 328 329 328 328 330 331 332 333 331 331 329 319 313 312 315 317 317 315 316 315 313 311 308 305 301 297 294 291 288 285 283 282 282 283 283 285 288 290 290 289 288 289 289 288 287 283 279 274
24 24 18 16 18 13 10 11 8 10 15 1 346 344 341 346 345 338 351 4 1 330 295 288 309 303 295 297 306 309 303 303 313 322 327 330 332 332 330 328 327 330 333 333 333 332 331 332 328 316 313 316 319 321 321 321 322 321 320 318 315 310 305 301 298 293 287 282 280 278 277 276 277 278 279 282 287 290 291 291 292 292 292 290 287 283
26 24 18 16 14 8 6 9 8 10 15 11 351 344 340 345 346 333 344 357 359 338 294 311 312 295 296 306 308 310 311 315 324 331 331 330 333 333 328 327 329 332 334 332 331 332 332 333 328 317 318 323 325 325 325 325 325 324 324 323 320 314 309 307 304 299 293 288 286 283 278 274 272 272 271 274 279 284 285 282 278 276 277 279 281 285
17 21 18 14 9 6 6 7 8 7 11 11 355 347 342 339 339 338 346 344 344 340 307 323 320 290 308 309 304 314 321 324 326 326 328 331 332 328 325 328 331 333 333 332 331 333 334 333 328 318 319 326 328 328 329 329 328 326 326 325 324 320 314 313 310 305 300 297 295 291 285 278 272 268 267 268 269 269 271 272 271 270 269 270 274 280
2 14 14 10 5 5 6 5 5 4 5 5 360 356 349 337 333 335 347 333 321 321 311 327 355 322 309 303 303 315 321 323 321 321 326 328 327 326 326 331 333 333 333 334 334 335 334 333 329 323 324 328 329 329 331 331 330 329 328 327 328 326 323 321 316 309 306 303 299 294 289 283 278 276 274 270 265 262 264 269 273 274 274 274 276 280
352 1 5 6 3 2 5 5 2 2 1 358 2 4 355 343 335 322 333 316 294 316 311 317 341 319 295 300 309 310 317 320 315 318 322 323 325 327 329 333 334 334 334 335 335 336 335 333 331 330 332 333 331 330 331 332 333 333 332 331 331 330 329 328 323 317 313 307 302 299 294 289 288 288 286 279 270 264 263 266 269 273 276 279 281 283
350 347 357 4 2 1 4 1 359 1 358 357 3 7 359 344 337 300 302 300 294 315 305 325 337 321 290 308 309 307 317 317 314 318 319 320 325 328 331 335 335 334 335 336 336 336 336 335 335 335 336 335 333 332 333 334 334 335 334 332 331 331 331 331 330 326 321 314 309 306 301 298 297 293 288 282 274 268 267 268 268 271 275 279 281 282
355 346 352 359 360 1 359 357 0 359 356 359 3 5 5 358 349 298 275 296 298 294 291 345 347 337 306 310 303 307 317 316 318 319 318 322 327 329 333 337 336 335 337 338 337 336 336 337 338 338 337 336 336 335 335 335 335 334 334 333 332 331 331 331 332 331 328 323 319 315 310 306 302 296 288 281 275 273 274 274 273 274 275 277 279 280
356 344 346 355 359 359 355 356 0 357 358 3 1 2 11 13 2 304 257 288 285 271 295 344 343 333 308 306 303 311 317 318 320 320 320 325 328 331 336 338 336 336 339 339 337 336 337 338 340 340 339 338 338 337 336 335 335 336 336 335 335 334 333 333 333 333 333 330 327 323 317 313 308 303 297 289 284 281 280 280 280 279 279 279 279 280
355 342 339 348 354 355 355 357 359 357 2 5 2 5 12 10 359 253 249 278 256 270 297 325 332 322 272 287 305 313 317 319 320 321 323 327 329 333 338 339 337 337 340 341 339 338 339 340 341 341 341 340 340 340 338 338 338 338 338 339 340 339 337 337 337 337 337 337 335 333 329 324 320 316 312 307 303 299 295 293 291 289 287 286 285 284
348 339 335 341 348 353 355 358 1 358 359 4 6 9 13 9 355 339 270 264 245 255 297 323 331 307 270 294 307 315 318 319 321 323 325 327 330 333 338 340 338 338 341 342 341 339 340 342 342 341 342 343 344 343 342 341 341 340 340 342 345 344 341 341 343 343 344 344 344 344 342 340 337 334 331 328 325 322 318 313 308 304 300 296 292 289
348 339 333 336 344 351 351 356 2 357 357 5 9 14 22 29 2 348 324 313 278 276 305 321 322 281 287 305 313 319 318 319 324 325 325 328 331 334 338 339 338 340 342 342 341 342 343 343 341 343 345 346 346 347 345 344 343 342 343 345 349 349 346 347 348 350 351 352 353 354 354 353 353 352 351 348 346 343 340 335 329 324 317 310 303 297
351 326 327 332 335 345 348 352 359 358 358 3 7 17 29 48 59 308 305 315 289 295 310 318 310 287 302 308 315 319 320 324 327 325 327 331 333 335 337 338 338 341 344 342 341 343 345 343 341 345 348 348 349 349 347 346 346 346 347 348 351 353 352 352 354 357 0 2 3 4 5 5 4 4 2 360 356 353 350 345 341 336 331 323 315 307
350 318 321 329 329 340 344 343 352 360 3 356 2 12 14 12 16 262 278 283 282 295 308 309 296 297 301 307 315 320 325 328 327 325 329 333 334 335 338 339 338 341 345 343 341 342 344 343 341 345 349 349 350 350 349 350 348 348 350 351 353 357 356 356 359 3 5 7 8 8 8 8 6 4 2 360 357 354 352 348 346 343 339 334 326 318
348 327 325 334 336 340 341 337 344 357 4 356 0 9 3 354 345 301 284 288 290 287 288 296 302 306 312 317 319 322 325 325 323 325 331 333 333 336 339 340 338 341 345 344 341 340 340 340 341 346 350 349 348 349 350 352 350 349 351 353 356 358 358 359 1 4 4 5 6 5 4 4 2 0 358 357 356 353 352 349 347 347 345 342 337 330
343 329 335 344 339 337 336 332 335 348 357 355 357 4 2 354 355 342 306 301 306 279 284 302 307 311 316 318 317 320 322 321 323 328 332 332 334 337 339 339 338 340 345 345 343 339 337 339 343 346 346 345 347 349 351 352 351 351 352 353 356 358 359 359 359 360 1 1 1 360 358 357 356 355 353 352 351 350 349 348 348 348 348 347 346 342
345 331 339 346 338 334 331 327 330 336 342 344 346 359 9 10 335 342 328 301 315 310 301 310 313 312 309 307 316 322 322 323 326 329 332 334 337 339 339 340 339 340 344 346 344 341 340 343 344 344 342 342 346 349 349 350 350 351 351 351 354 355 356 357 356 355 355 355 356 355 354 352 350 350 349 347 345 344 345 346 347 347 348 350 351 351
351 330 331 341 336 330 324 320 324 322 325 335 341 350 5 13 327 329 329 249 278 311 297 312 320 310 307 315 321 326 327 326 326 329 333 336 337 339 339 340 340 340 343 345 344 342 342 343 341 340 340 340 343 346 346 347 347 347 349 350 351 351 352 354 352 351 351 350 349 350 349 348 347 346 345 343 342 342 344 344 345 345 346 349 352 355
353 330 312 334 336 326 314 308 308 309 310 322 333 335 340 353 344 325 301 249 259 260 280 317 306 294 308 325 328 329 329 324 323 328 333 336 337 338 340 340 340 340 341 344 345 342 341 339 337 337 337 336 339 342 343 343 343 344 346 347 348 348 348 349 348 347 347 346 345 346 345 344 344 343 343 342 342 342 342 343 343 343 344 346 349 354
353 330 306 329 333 319 306 300 299 301 300 311 325 326 323 338 344 323 281 248 251 253 271 280 280 296 316 336 333 329 327 321 322 328 332 334 336 338 340 341 341 340 340 343 344 342 339 335 332 333 334 334 335 337 338 340 341 341 343 343 344 344 344 344 344 343 343 341 339 340 341 341 341 340 340 340 340 340 340 342 343 345 346 346 346 350
350 333 317 329 330 317 310 304 297 296 297 306 318 319 315 320 320 302 264 275 281 280 282 273 261 296 321 335 328 327 324 318 321 327 331 334 337 339 340 340 341 341 341 342 343 342 338 333 330 331 333 333 331 331 334 336 337 337 338 339 339 340 340 340 339 339 337 336 334 334 336 337 337 336 336 336 335 337 339 341 344 346 348 348 345 346
350 341 329 331 327 318 312 307 304 300 300 308 315 316 312 309 309 301 285 287 288 282 284 268 242 291 318 326 322 322 319 315 321 329 332 334 337 339 340 340 342 342 341 340 340 340 339 337 333 329 330 331 328 327 330 332 334 335 333 333 335 336 336 335 335 334 333 332 329 329 331 332 333 332 332 331 331 334 337 340 343 346 348 349 347 344
350 342 335 334 332 330 325 320 322 316 312 314 312 311 310 307 304 301 297 293 283 281 283 228 249 293 314 322 320 319 317 317 324 330 332 334 336 338 340 341 342 342 341 340 338 339 341 340 336 329 327 327 326 325 327 328 330 331 329 329 331 332 332 331 330 330 330 329 327 327 328 329 330 329 330 330 329 330 333 336 340 344 347 349 349 347
341 337 337 334 324 328 318 313 318 315 310 308 304 303 304 302 296 296 298 284 274 287 273 240 270 298 316 327 324 320 319 322 328 331 332 335 336 338 341 342 342 341 341 341 338 338 340 340 338 332 326 324 324 324 324 323 326 328 326 326 327 328 328 327 326 326 326 327 326 326 327 328 328 328 329 330 329 328 330 332 336 341 346 348 350 350
333 333 337 328 309 307 307 310 316 311 303 302 302 298 295 294 291 290 283 271 282 290 276 272 285 300 316 329 328 322 323 326 331 334 333 334 336 339 342 342 341 341 341 340 339 338 338 339 339 335 328 323 322 322 322 321 323 325 324 324 323 324 324 324 323 323 323 324 324 323 325 326 326 327 329 330 330 329 329 330 333 338 344 347 350 351
327 329 335 327 318 320 319 319 320 311 305 308 306 295 290 289 287 283 280 287 296 284 281 298 304 299 311 327 330 326 327 329 333 335 333 334 338 340 341 341 341 342 342 340 339 338 337 337 338 336 332 326 320 320 321 320 319 320 321 322 321 320 321 321 322 322 321 322 321 321 323 325 324 325 329 331 330 329 328 329 331 335 340 345 348 351
323 326 333 327 324 329 330 325 324 320 316 316 310 298 290 285 283 286 291 298 293 269 284 308 308 299 313 329 330 328 330 329 333 335 333 335 339 339 340 340 341 342 342 340 339 338 337 336 336 337 336 332 325 320 319 318 317 316 316 318 319 319 319 320 320 321 321 321 320 319 321 323 324 324 327 330 330 328 328 329 330 332 336 341 344 350
320 324 331 326 324 333 339 333 333 330 324 322 318 306 292 284 286 291 296 300 291 281 296 310 305 305 323 332 325 329 332 329 331 334 334 336 337 337 339 339 341 342 342 341 339 338 337 336 335 336 337 337 333 325 319 317 316 315 314 315 316 317 318 319 319 320 321 320 320 319 320 322 322 322 325 329 330 329 328 329 330 329 331 336 340 346
320 323 329 325 325 338 347 338 335 332 322 318 317 309 300 292 290 291 296 302 297 297 309 311 302 312 333 331 322 329 331 329 332 333 334 336 335 335 337 338 340 342 341 341 340 338 338 337 335 336 337 339 339 333 325 318 315 316 315 314 313 314 315 318 319 320 321 321 320 320 320 322 322 322 323 326 329 329 329 329 329 327 328 331 336 341
323 321 327 327 323 334 345 336 333 332 320 314 321 322 314 303 297 296 300 304 305 307 311 305 301 317 334 327 321 327 328 329 332 333 334 335 334 335 336 337 339 341 341 341 340 338 338 338 337 337 336 337 339 337 332 324 318 315 314 314 313 312 312 314 316 320 322 321 321 321 322 322 323 322 323 325 327 328 328 328 328 327 325 328 332 337
323 321 328 328 319 328 341 337 334 336 329 327 333 327 317 311 307 306 307 310 313 312 307 305 311 324 329 324 323 326 327 329 331 334 334 333 333 335 335 336 338 339 341 341 339 339 339 339 339 338 337 337 337 338 337 332 325 317 314 314 313 312 312 311 313 316 320 322 322 323 323 323 323 323 323 324 325 326 326 326 326 325 324 324 328 335
324 323 326 324 315 323 336 338 337 340 336 333 335 329 322 321 317 313 314 315 317 316 314 314 320 327 326 326 327 326 327 328 330 334 334 331 332 334 333 335 337 338 339 339 339 340 340 340 340 339 338 337 336 337 337 336 332 325 318 314 313 313 312 311 312 313 316 319 321 322 323 323 323 323 323 322 323 324 325 323 323 323 321 322 325 332
323 324 323 321 315 318 331 341 346 338 321 330 339 343 336 330 325 320 321 324 323 322 320 317 321 327 327 327 327 326 327 327 329 332 333 331 332 332 333 336 337 336 337 339 340 341 340 340 341 339 338 336 335 336 336 336 336 333 326 319 314 312 312 311 312 312 313 315 317 319 321 320 320 320 320 320 321 323 325 324 321 319 319 321 324 328
323 323 320 320 317 316 325 334 321 315 330 341 349 347 341 335 331 325 328 338 340 329 323 323 325 329 329 327 327 327 326 326 328 332 333 332 332 333 335 336 335 335 337 338 340 341 339 339 340 339 339 336 334 336 336 336 337 336 333 327 319 314 312 311 312 312 312 312 312 314 316 316 316 317 316 317 318 320 324 325 320 316 318 322 322 325
321 319 317 318 316 310 312 311 307 315 332 349 347 343 340 336 333 325 327 343 353 338 330 331 329 329 330 328 327 327 326 326 329 332 332 332 334 334 334 335 335 336 337 337 338 339 339 339 339 339 339 337 335 335 335 334 335 336 336 333 326 319 314 312 313 313 311 311 309 309 311 311 312 312 311 312 314 316 320 323 319 315 317 320 320 322
319 316 314 310 304 302 305 312 318 316 324 337 338 338 337 334 334 326 321 332 348 342 334 333 331 330 331 329 326 327 326 326 328 331 331 331 333 332 332 334 335 335 335 334 335 337 337 338 338 338 338 338 336 336 335 333 334 336 337 336 333 327 320 314 313 312 311 311 309 307 307 307 308 308 307 308 309 309 312 317 318 314 314 318 319 320
319 317 313 304 300 303 299 297 297 279 303 327 333 334 334 332 330 326 318 324 338 338 334 334 333 332 331 328 326 327 326 325 327 329 328 328 330 330 330 332 332 331 331 331 333 335 336 336 336 337 338 338 336 336 336 334 334 335 336 336 335 333 327 320 315 313 312 310 309 308 307 306 306 306 305 305 305 304 305 309 312 311 311 314 316 318
316 313 310 303 302 306 298 284 282 292 311 326 330 331 331 328 327 326 319 323 332 333 332 333 333 332 331 329 326 326 325 324 325 325 325 326 327 327 327 328 329 328 329 329 330 333 334 334 334 335 336 337 337 337 336 334 334 333 333 334 335 335 333 328 321 316 314 311 309 309 308 307 306 305 304 304 304 302 300 303 305 306 307 309 311 314
312 309 306 304 306 306 294 280 288 305 321 328 328 328 327 325 325 323 315 321 327 329 330 330 330 331 330 328 326 326 325 324 323 323 323 323 323 324 324 325 326 327 327 327 328 330 332 333 333 334 335 337 338 338 337 335 334 332 331 331 332 334 335 333 328 322 317 314 312 310 308 308 307 306 308 309 307 303 299 299 301 301 302 304 306 309
308 306 303 304 309 310 299 287 292 309 326 330 326 326 324 321 322 321 319 322 326 327 327 328 329 330 329 327 327 327 326 325 324 323 322 322 322 322 322 322 324 325 325 326 327 328 330 331 332 332 334 336 337 337 338 337 334 332 331 330 330 331 333 334 334 330 323 317 313 310 308 306 305 307 311 314 313 307 301 299 299 299 298 300 303 306
303 300 299 305 312 312 302 291 293 311 325 328 325 323 322 321 321 322 321 324 327 327 326 327 328 329 327 327 327 327 326 326 325 323 323 322 322 322 321 321 322 322 324 325 325 327 328 329 330 331 332 333 334 335 338 338 336 334 332 331 329 329 329 331 334 334 330 324 316 311 308 306 305 306 308 313 314 310 306 303 301 299 298 299 302 305
302 299 300 305 310 304 293 294 310 321 324 324 321 321 322 323 324 324 322 324 327 327 326 326 327 327 326 326 327 327 327 327 325 325 324 322 322 322 321 321 321 321 322 323 323 325 326 326 328 328 328 330 332 334 336 337 337 336 334 333 330 328 327 328 330 333 333 330 323 315 308 305 304 304 305 308 311 310 310 308 304 302 301 300 302 304
302 304 304 303 304 300 299 309 323 329 325 320 319 322 324 325 325 324 322 324 327 326 325 325 327 326 325 326 326 327 327 327 327 326 325 323 323 322 321 321 321 320 320 321 322 322 323 323 325 326 327 328 330 332 333 335 337 337 336 335 333 330 327 326 327 329 332 332 330 324 314 307 304 303 304 305 306 308 309 308 307 305 304 303 304 304
307 308 307 307 308 306 312 325 332 330 325 321 321 324 326 325 325 323 322 323 325 325 324 325 325 325 325 325 325 326 327 327 327 327 326 324 324 323 321 321 320 319 319 319 319 320 320 321 322 323 325 326 327 329 331 333 335 336 336 336 336 333 331 328 326 327 329 331 332 331 325 316 307 303 303 304 305 307 308 308 308 306 305 305 305 305
310 311 310 312 309 306 318 334 337 328 325 326 326 327 327 326 325 324 322 322 323 323 323 324 324 325 325 325 325 325 325 326 327 327 326 326 325 324 322 321 320 319 318 317 317 318 318 318 319 321 322 323 324 326 328 330 332 334 335 336 336 335 334 332 329 327 328 329 331 333 333 328 317 306 302 301 303 304 306 307 308 307 306 306 305 306
309 311 314 315 310 308 321 336 336 327 326 329 330 330 330 328 326 323 321 321 321 321 322 322 323 324 324 324 324 323 323 324 324 324 325 326 325 324 322 321 321 319 317 316 316 316 315 316 317 318 320 321 322 324 326 328 330 331 333 335 336 336 335 335 332 330 328 329 331 333 335 335 329 317 307 301 300 302 303 305 306 307 307 306 305 306
309 311 315 314 311 315 326 336 334 325 324 329 331 330 330 328 326 323 322 321 321 321 321 321 321 323 324 324 323 322 322 322 322 322 323 325 325 324 323 322 322 320 317 316 315 314 314 314 314 316 317 318 320 322 323 325 327 329 331 333 335 336 336 336 335 333 332 331 331 332 335 338 337 329 318 308 302 302 303 305 306 307 308 308 308 308
316 316 320 315 311 316 328 335 330 320 318 324 328 327 327 328 325 323 322 322 321 321 320 319 320 321 322 322 322 321 321 321 320 319 321 322 322 323 322 322 322 320 318 316 314 313 312 312 312 314 314 315 317 319 321 323 325 327 329 332 334 335 336 337 336 336 336 335 332 330 333 338 341 338 330 320 312 306 305 306 307 309 310 310 311 311
324 322 321 313 309 315 325 332 327 317 314 319 322 322 323 325 324 322 322 321 321 320 319 318 318 319 320 320 320 319 319 319 317 318 319 320 320 320 321 322 322 321 318 316 314 313 311 310 311 311 311 313 315 316 318 320 323 325 327 329 332 334 336 337 338 337 338 337 334 331 331 336 341 341 336 331 325 318 315 313 311 311 313 314 313 313